[Date Prev][Date Next][Thread Prev][Thread Next] - [Date Index][Thread Index][Author Index]
2 Line ISS Keps 4-23
- Subject: [sarex] 2 Line ISS Keps 4-23
- From: "Dave Larsen PhD" <doc@xxxxxxxxxxx>
- Date: Tue, 23 Apr 2002 03:49:08 -0700
ISS
1 25544U 98067A 02113.16828704 .00038584 00000-0 51222-3 0 3428
2 25544 51.6383 329.3930 0006494 357.4144 143.6364 15.57817583195448
----
Via the sarex mailing list at AMSAT.ORG courtesy of AMSAT-NA.
To unsubscribe, send "unsubscribe sarex" to Majordomo@amsat.org
AMSAT Home